Location: Bonningues
(50.7927°N, 2.0150°E)
Time: 06:00:06
(UTC+00:00)

MOS 1-B Rocket - Pass Details

Date: 08 August 2020
Orbit: 890 x 1606 km, 99.1° (Epoch: 23 September)

Event Time Altitude Azimuth Distance (km) Brightness Sun altitude
Rises 22:34:53 0° 16° (NNE) 3,642 7.8 -21.0°
Reaches altitude 10° 22:37:23 10° 17° (NNE) 2,641 7.0 -21.1°
Maximum altitude 22:43:09 80° 105° (ESE) 912 3.7 -21.5°
Enters shadow 22:45:14 41° 187° (S) 1,278 4.2 -21.6°
